This is the latest recevied weather packets stored in our database for station/object TG5ALY-16. If no packets are shown the sender has not sent any weather packets the latest 10 day(s).
| Time | Temp. | Humidity | Pressure | Rain* | Wind** | Luminosity | Snow |
|---|---|---|---|---|---|---|---|
| 1778024305 | 20.56° C | 70% | 1015 hPa | 0 mm | - | - | - |
| 1778023705 | 20.56° C | 70% | 1014 hPa | 0 mm | - | - | - |
| 1778023104 | 20.56° C | 73% | 1014 hPa | 0 mm | - | - | - |
| 1778022503 | 20.56° C | 73% | 1014 hPa | 0 mm | - | - | - |
| 1778021902 | 20.56° C | 71% | 1014 hPa | 0 mm | - | - | - |
| 1778021302 | 20.56° C | 71% | 1014 hPa | 0 mm | - | - | - |
| 1778020701 | 20.56° C | 71% | 1014 hPa | 0 mm | - | - | - |
| 1778020101 | 20.56° C | 71% | 1014 hPa | 0 mm | - | - | - |
| 1778019500 | 21.11° C | 68% | 1014 hPa | 0 mm | - | - | - |
| 1778018899 | 22.22° C | 62% | 1013 hPa | 0 mm | - | - | - |
| 1778018299 | 22.22° C | 62% | 1013 hPa | 0 mm | - | - | - |
| 1778017698 | 22.22° C | 62% | 1013 hPa | 0 mm | - | - | - |
| 1778017097 | 22.78° C | 56% | 1013 hPa | 0 mm | - | - | - |
| 1778016497 | 22.78° C | 57% | 1014 hPa | 0 mm | - | - | - |
| 1778015896 | 21.67° C | 66% | 1014 hPa | 0 mm | - | - | - |
| 1778015296 | 21.67° C | 66% | 1014 hPa | 0 mm | - | - | - |
| 1778014695 | 23.33° C | 63% | 1013 hPa | 0 mm | - | - | - |
| 1778014094 | 23.33° C | 62% | 1013 hPa | 0 mm | - | - | - |
| 1778013493 | 23.89° C | 52% | 1013 hPa | 0 mm | - | - | - |
| 1778012893 | 23.89° C | 53% | 1014 hPa | 0 mm | - | - | - |
| 1778012292 | 22.22° C | 62% | 1014 hPa | 0 mm | - | - | - |
| 1778011691 | 22.22° C | 62% | 1014 hPa | 0 mm | - | - | - |
| 1778011090 | 23.33° C | 59% | 1013 hPa | 0 mm | - | - | - |
| 1778010490 | 23.33° C | 55% | 1013 hPa | 0 mm | - | - | - |
| 1778009889 | 23.33° C | 55% | 1013 hPa | 0 mm | - | - | - |
* Rain latest hour (hover to see other rain measurements)
** Current wind speed in m/s (hover to see current wind gust speed)